Time,TemperatureF,DewpointF,PressureIn,WindDirection,WindDirectionDegrees,WindSpeedMPH,WindSpeedGustMPH,Humidity,HourlyPrecipIn,Conditions,Clouds,dailyrainin,SoftwareType,DateUTC
2013-07-26 00:00:00,52.0,50.0,-100.00,SW,234,9.0,-999.0,95,0.00,,,-99.99,,2013-07-26 07:00:00,
2013-07-26 00:32:00,52.0,50.0,-100.00,SW,234,9.0,-999.0,95,0.00,,,-99.99,,2013-07-26 07:32:00,
2013-07-26 00:53:00,52.0,50.0,-100.00,SW,234,9.0,-999.0,95,0.00,,,-99.99,,2013-07-26 07:53:00,
2013-07-26 01:00:00,52.0,51.0,-100.00,WSW,239,8.0,-999.0,96,0.00,,,-99.99,,2013-07-26 08:00:00,
2013-07-26 01:32:00,52.0,51.0,-100.00,WSW,239,8.0,-999.0,96,0.00,,,-99.99,,2013-07-26 08:32:00,
2013-07-26 01:52:00,52.0,51.0,-100.00,WSW,239,8.0,-999.0,96,0.00,,,-99.99,,2013-07-26 08:52:00,
2013-07-26 02:00:00,51.0,50.0,-100.00,SW,233,8.0,-999.0,96,0.00,,,-99.99,,2013-07-26 09:00:00,
2013-07-26 02:32:00,51.0,50.0,-100.00,SW,233,8.0,-999.0,96,0.00,,,-99.99,,2013-07-26 09:32:00,
2013-07-26 02:52:00,51.0,50.0,-100.00,SW,233,8.0,-999.0,96,0.00,,,-99.99,,2013-07-26 09:52:00,
2013-07-26 03:00:00,51.0,50.0,-100.00,WSW,247,10.0,-999.0,96,0.00,,,-99.99,,2013-07-26 10:00:00,
2013-07-26 03:33:00,51.0,50.0,-100.00,WSW,247,10.0,-999.0,96,0.00,,,-99.99,,2013-07-26 10:33:00,
2013-07-26 03:52:00,51.0,50.0,-100.00,WSW,247,10.0,-999.0,96,0.00,,,-99.99,,2013-07-26 10:52:00,
2013-07-26 04:00:00,51.0,50.0,-100.00,WSW,239,8.0,-999.0,96,0.00,,,-99.99,,2013-07-26 11:00:00,
2013-07-26 04:32:00,51.0,50.0,-100.00,WSW,239,8.0,-999.0,96,0.00,,,-99.99,,2013-07-26 11:32:00,
2013-07-26 04:52:00,51.0,50.0,-100.00,WSW,239,8.0,-999.0,96,0.00,,,-99.99,,2013-07-26 11:52:00,
2013-07-26 05:00:00,51.0,50.0,-100.00,SW,226,4.0,-999.0,96,0.00,,,-99.99,,2013-07-26 12:00:00,
2013-07-26 05:33:00,51.0,50.0,-100.00,SW,226,4.0,-999.0,96,0.00,,,-99.99,,2013-07-26 12:33:00,
2013-07-26 05:53:00,51.0,50.0,-100.00,SW,226,4.0,-999.0,96,0.00,,,-99.99,,2013-07-26 12:53:00,
2013-07-26 06:00:00,52.0,51.0,-100.00,SW,220,9.0,-999.0,96,0.00,,,-99.99,,2013-07-26 13:00:00,
2013-07-26 06:32:00,52.0,51.0,-100.00,SW,220,9.0,-999.0,96,0.00,,,-99.99,,2013-07-26 13:32:00,
2013-07-26 06:53:00,52.0,51.0,-100.00,SW,220,9.0,-999.0,96,0.00,,,-99.99,,2013-07-26 13:53:00,
2013-07-26 07:00:00,52.0,51.0,-100.00,WSW,241,10.0,-999.0,96,0.00,,,-99.99,,2013-07-26 14:00:00,
2013-07-26 07:33:00,52.0,51.0,-100.00,WSW,241,10.0,-999.0,96,0.00,,,-99.99,,2013-07-26 14:33:00,
2013-07-26 07:53:00,52.0,51.0,-100.00,WSW,241,10.0,-999.0,96,0.00,,,-99.99,,2013-07-26 14:53:00,
2013-07-26 08:00:00,52.0,51.0,-100.00,SW,233,5.0,-999.0,96,0.00,,,-99.99,,2013-07-26 15:00:00,
2013-07-26 08:33:00,52.0,51.0,-100.00,SW,233,5.0,-999.0,96,0.00,,,-99.99,,2013-07-26 15:33:00,
2013-07-26 08:53:00,52.0,51.0,-100.00,SW,233,5.0,-999.0,96,0.00,,,-99.99,,2013-07-26 15:53:00,
2013-07-26 09:00:00,53.0,51.0,-100.00,SW,234,6.0,-999.0,96,0.00,,,-99.99,,2013-07-26 16:00:00,
2013-07-26 09:32:00,53.0,51.0,-100.00,SW,234,6.0,-999.0,96,0.00,,,-99.99,,2013-07-26 16:32:00,
2013-07-26 09:54:00,53.0,51.0,-100.00,SW,234,6.0,-999.0,96,0.00,,,-99.99,,2013-07-26 16:54:00,
2013-07-26 10:00:00,53.0,52.0,-100.00,WSW,252,9.0,-999.0,96,0.00,,,-99.99,,2013-07-26 17:00:00,
2013-07-26 10:33:00,53.0,52.0,-100.00,WSW,252,9.0,-999.0,96,0.00,,,-99.99,,2013-07-26 17:33:00,
2013-07-26 10:53:00,53.0,52.0,-100.00,WSW,252,9.0,-999.0,96,0.00,,,-99.99,,2013-07-26 17:53:00,
2013-07-26 11:33:00,55.0,54.0,-100.00,SW,235,8.0,-999.0,96,0.00,,,-99.99,,2013-07-26 18:33:00,
2013-07-26 11:44:00,55.0,54.0,-100.00,SW,235,8.0,-999.0,96,0.00,,,-99.99,,2013-07-26 18:44:00,
2013-07-26 12:43:00,58.0,56.0,-100.00,SSW,207,6.0,-999.0,95,0.00,,,-99.99,,2013-07-26 19:43:00,
2013-07-26 12:52:00,58.0,56.0,-100.00,SSW,207,6.0,-999.0,95,0.00,,,-99.99,,2013-07-26 19:52:00,
2013-07-26 13:32:00,63.0,54.0,-100.00,SW,221,15.0,-999.0,73,0.00,,,-99.99,,2013-07-26 20:32:00,
2013-07-26 13:43:00,63.0,54.0,-100.00,SW,221,15.0,-999.0,73,0.00,,,-99.99,,2013-07-26 20:43:00,
2013-07-26 15:00:00,68.0,55.0,-100.00,WSW,253,17.0,-999.0,62,0.00,,,-99.99,,2013-07-26 22:00:00,
2013-07-26 15:33:00,68.0,55.0,-100.00,WSW,253,17.0,-999.0,62,0.00,,,-99.99,,2013-07-26 22:33:00,
2013-07-26 15:53:00,68.0,55.0,-100.00,WSW,253,17.0,-999.0,62,0.00,,,-99.99,,2013-07-26 22:53:00,
2013-07-26 16:00:00,65.0,54.0,-100.00,SW,236,22.0,-999.0,68,0.00,,,-99.99,,2013-07-26 23:00:00,
2013-07-26 16:32:00,65.0,54.0,-100.00,SW,236,22.0,-999.0,68,0.00,,,-99.99,,2013-07-26 23:32:00,
2013-07-26 16:43:00,65.0,54.0,-100.00,SW,236,22.0,-999.0,68,0.00,,,-99.99,,2013-07-26 23:43:00,
2013-07-26 16:53:00,65.0,54.0,-100.00,SW,236,22.0,-999.0,68,0.00,,,-99.99,,2013-07-26 23:53:00,
2013-07-26 17:00:00,64.0,54.0,-100.00,SW,228,20.0,-999.0,68,0.00,,,-99.99,,2013-07-27 00:00:00,
2013-07-26 17:32:00,64.0,54.0,-100.00,SW,228,20.0,-999.0,68,0.00,,,-99.99,,2013-07-27 00:32:00,
2013-07-26 17:43:00,64.0,54.0,-100.00,SW,228,20.0,-999.0,68,0.00,,,-99.99,,2013-07-27 00:43:00,
2013-07-26 17:53:00,64.0,54.0,-100.00,SW,228,20.0,-999.0,68,0.00,,,-99.99,,2013-07-27 00:53:00,
2013-07-26 18:00:00,60.0,53.0,-100.00,SW,227,15.0,-999.0,77,0.00,,,-99.99,,2013-07-27 01:00:00,
2013-07-26 18:32:00,60.0,53.0,-100.00,SW,227,15.0,-999.0,77,0.00,,,-99.99,,2013-07-27 01:32:00,
2013-07-26 18:44:00,60.0,53.0,-100.00,SW,227,15.0,-999.0,77,0.00,,,-99.99,,2013-07-27 01:44:00,
2013-07-26 18:53:00,60.0,53.0,-100.00,SW,227,15.0,-999.0,77,0.00,,,-99.99,,2013-07-27 01:53:00,
2013-07-26 19:00:00,56.0,52.0,-100.00,SW,233,16.0,-999.0,87,0.00,,,-99.99,,2013-07-27 02:00:00,
2013-07-26 19:32:00,56.0,52.0,-100.00,SW,233,16.0,-999.0,87,0.00,,,-99.99,,2013-07-27 02:32:00,
2013-07-26 19:43:00,56.0,52.0,-100.00,SW,233,16.0,-999.0,87,0.00,,,-99.99,,2013-07-27 02:43:00,
2013-07-26 19:53:00,56.0,52.0,-100.00,SW,233,16.0,-999.0,87,0.00,,,-99.99,,2013-07-27 02:53:00,
2013-07-26 20:00:00,54.0,51.0,-100.00,SW,226,16.0,-999.0,90,0.00,,,-99.99,,2013-07-27 03:00:00,
2013-07-26 20:33:00,54.0,51.0,-100.00,SW,226,16.0,-999.0,90,0.00,,,-99.99,,2013-07-27 03:33:00,
2013-07-26 20:52:00,54.0,51.0,-100.00,SW,226,16.0,-999.0,90,0.00,,,-99.99,,2013-07-27 03:52:00,
2013-07-26 21:00:00,53.0,51.0,-100.00,WSW,240,8.0,-999.0,93,0.00,,,-99.99,,2013-07-27 04:00:00,
2013-07-26 21:32:00,53.0,51.0,-100.00,WSW,240,8.0,-999.0,93,0.00,,,-99.99,,2013-07-27 04:32:00,
2013-07-26 21:53:00,53.0,51.0,-100.00,WSW,240,8.0,-999.0,93,0.00,,,-99.99,,2013-07-27 04:53:00,
2013-07-26 22:00:00,53.0,51.0,-100.00,WSW,240,13.0,-999.0,95,0.00,,,-99.99,,2013-07-27 05:00:00,
2013-07-26 22:33:00,53.0,51.0,-100.00,WSW,240,13.0,-999.0,95,0.00,,,-99.99,,2013-07-27 05:33:00,
2013-07-26 22:52:00,53.0,51.0,-100.00,WSW,240,13.0,-999.0,95,0.00,,,-99.99,,2013-07-27 05:52:00,
2013-07-26 23:00:00,53.0,51.0,-100.00,WSW,243,10.0,-999.0,95,0.00,,,-99.99,,2013-07-27 06:00:00,
2013-07-26 23:33:00,53.0,51.0,-100.00,WSW,243,10.0,-999.0,95,0.00,,,-99.99,,2013-07-27 06:33:00,
2013-07-26 23:52:00,53.0,51.0,-100.00,WSW,243,10.0,-999.0,95,0.00,,,-99.99,,2013-07-27 06:52:00,